NOZ185 ENHD-ENGM

Flight info

Callsign NOZ185
Flight time 0h 43m
Altitude 27000
Route ODINU1K ODINU DCT BOBGA DCT ADOPI ADOPI3M
Aircraft B38M/M-SDE1FGHILORVWXY/HB1

Departure

Time 2026-05-06 18:03
Airport Haugesund Airport, Karmøy (ENHD)

Arrival

Time 2026-05-06 18:46
Airport Oslo-Gardermoen International Airport (ENGM)
Time Latitude Longitude Altitude Speed Heading
2026-05-06 17:36 59.34391 5.21659 93 ft 0 kts 44°
2026-05-06 17:53 59.34380 5.21636 91 ft 4 kts 44°
2026-05-06 17:54 59.34361 5.21600 91 ft 3 kts 44°
2026-05-06 17:54 59.34359 5.21596 90 ft 0 kts 44°
2026-05-06 17:59 59.34359 5.21597 88 ft 1 kts 45°
2026-05-06 17:59 59.34359 5.21607 88 ft 1 kts 101°
2026-05-06 18:00 59.34346 5.21620 91 ft 3 kts 169°
2026-05-06 18:00 59.34321 5.21582 88 ft 10 kts 225°
2026-05-06 18:00 59.34255 5.21460 91 ft 13 kts 212°
2026-05-06 18:00 59.34187 5.21520 90 ft 13 kts 135°
2026-05-06 18:01 59.34121 5.21652 88 ft 15 kts 135°
2026-05-06 18:01 59.34037 5.21818 90 ft 20 kts 134°
2026-05-06 18:01 59.33925 5.22043 88 ft 26 kts 134°
2026-05-06 18:01 59.33810 5.22274 88 ft 16 kts 134°
2026-05-06 18:02 59.33776 5.22402 88 ft 8 kts 115°
2026-05-06 18:02 59.33752 5.22399 88 ft 5 kts 243°
2026-05-06 18:02 59.33787 5.22320 92 ft 14 kts 315°
2026-05-06 18:02 59.33996 5.21902 88 ft 85 kts 314°
2026-05-06 18:03 59.34605 5.20682 95 ft 161 kts 314°
2026-05-06 18:03 59.35440 5.19045 916 ft 168 kts 315°
2026-05-06 18:03 59.36267 5.17434 2077 ft 172 kts 317°
2026-05-06 18:03 59.37184 5.15703 2684 ft 196 kts 318°
2026-05-06 18:04 59.38461 5.14460 3369 ft 221 kts 353°
2026-05-06 18:04 59.39950 5.15179 4360 ft 230 kts 32°
2026-05-06 18:04 59.41026 5.17678 5133 ft 253 kts 63°
2026-05-06 18:04 59.41646 5.20942 5227 ft 262 kts 67°
2026-05-06 18:05 59.42290 5.24327 5409 ft 266 kts 66°
2026-05-06 18:05 59.42946 5.27734 5570 ft 267 kts 66°
2026-05-06 18:05 59.43611 5.31153 5718 ft 268 kts 66°
2026-05-06 18:05 59.44290 5.34609 6208 ft 272 kts 66°
2026-05-06 18:06 59.44962 5.38052 7345 ft 271 kts 66°
2026-05-06 18:06 59.45647 5.41569 8272 ft 280 kts 66°
2026-05-06 18:06 59.46351 5.45173 9265 ft 285 kts 66°
2026-05-06 18:06 59.47068 5.48848 10160 ft 291 kts 66°
2026-05-06 18:07 59.47815 5.52667 10768 ft 308 kts 66°
2026-05-06 18:07 59.48617 5.56732 11249 ft 327 kts 65°
2026-05-06 18:07 59.49452 5.60985 11840 ft 341 kts 65°
2026-05-06 18:07 59.50315 5.65414 12507 ft 351 kts 66°
2026-05-06 18:08 59.51189 5.69947 13308 ft 358 kts 66°
2026-05-06 18:08 59.52081 5.74588 13969 ft 367 kts 66°
2026-05-06 18:08 59.52991 5.79330 14647 ft 373 kts 66°
2026-05-06 18:08 59.53911 5.84145 15322 ft 378 kts 66°
2026-05-06 18:09 59.54843 5.89034 15980 ft 383 kts 67°
2026-05-06 18:09 59.55783 5.93981 16584 ft 391 kts 67°
2026-05-06 18:09 59.56736 5.99005 16844 ft 391 kts 67°
2026-05-06 18:09 59.57688 6.04047 17002 ft 394 kts 67°
2026-05-06 18:10 59.58642 6.09099 17034 ft 394 kts 67°
2026-05-06 18:10 59.59594 6.14167 17020 ft 394 kts 67°
2026-05-06 18:10 59.60545 6.19240 17033 ft 394 kts 68°
2026-05-06 18:10 59.61487 6.24270 17475 ft 395 kts 68°
2026-05-06 18:11 59.62438 6.29382 18157 ft 399 kts 68°
2026-05-06 18:11 59.63092 6.32894 18489 ft 404 kts 68°
2026-05-06 18:11 59.64382 6.39844 19260 ft 408 kts 68°
2026-05-06 18:11 59.65364 6.45152 19803 ft 413 kts 67°
2026-05-06 18:12 59.66352 6.50510 20338 ft 416 kts 67°
2026-05-06 18:12 59.67342 6.55894 20863 ft 420 kts 68°
2026-05-06 18:12 59.68393 6.61311 21412 ft 422 kts 61°
2026-05-06 18:12 59.69728 6.66486 21930 ft 424 kts 60°
2026-05-06 18:13 59.71053 6.71750 22450 ft 428 kts 60°
2026-05-06 18:13 59.72368 6.77069 22992 ft 433 kts 60°
2026-05-06 18:13 59.73677 6.82431 23355 ft 441 kts 61°
2026-05-06 18:13 59.75015 6.87943 23784 ft 446 kts 61°
2026-05-06 18:14 59.76360 6.93503 24186 ft 449 kts 61°
2026-05-06 18:14 59.77710 6.99100 24609 ft 452 kts 61°
2026-05-06 18:14 59.79071 7.04755 25002 ft 456 kts 62°
2026-05-06 18:14 59.80440 7.10458 25389 ft 459 kts 62°
2026-05-06 18:15 59.81815 7.16200 25799 ft 462 kts 62°
2026-05-06 18:15 59.83197 7.21991 26168 ft 465 kts 62°
2026-05-06 18:15 59.84589 7.27835 26527 ft 469 kts 63°
2026-05-06 18:15 59.85987 7.33725 26908 ft 472 kts 63°
2026-05-06 18:16 59.87396 7.39675 27050 ft 478 kts 63°
2026-05-06 18:16 59.88805 7.45642 27021 ft 477 kts 63°
2026-05-06 18:16 59.90215 7.51624 27020 ft 477 kts 64°
2026-05-06 18:16 59.91619 7.57607 27026 ft 477 kts 64°
2026-05-06 18:17 59.93024 7.63602 27005 ft 476 kts 64°
2026-05-06 18:17 59.94423 7.69592 27032 ft 477 kts 64°
2026-05-06 18:17 59.95823 7.75600 27059 ft 478 kts 63°
2026-05-06 18:17 59.97207 7.81563 27005 ft 479 kts 63°
2026-05-06 18:18 59.98602 7.87588 27019 ft 479 kts 63°
2026-05-06 18:18 59.99999 7.93638 27030 ft 480 kts 63°
2026-05-06 18:18 60.01390 7.99678 26954 ft 474 kts 64°
2026-05-06 18:18 60.02753 8.05612 26683 ft 466 kts 64°
2026-05-06 18:19 60.04094 8.11466 26382 ft 459 kts 64°
2026-05-06 18:19 60.05413 8.17236 26078 ft 453 kts 64°
2026-05-06 18:19 60.06277 8.21018 25813 ft 450 kts 63°
2026-05-06 18:19 60.08012 8.28640 25157 ft 449 kts 63°
2026-05-06 18:20 60.08865 8.32400 24825 ft 449 kts 63°
2026-05-06 18:20 60.10158 8.38097 24414 ft 447 kts 63°
2026-05-06 18:20 60.11434 8.43729 24060 ft 443 kts 63°
2026-05-06 18:20 60.12703 8.49349 23655 ft 440 kts 63°
2026-05-06 18:21 60.13962 8.54937 23169 ft 438 kts 63°
2026-05-06 18:21 60.15208 8.60483 22738 ft 434 kts 63°
2026-05-06 18:21 60.16442 8.65990 22347 ft 430 kts 63°
2026-05-06 18:21 60.17663 8.71452 22002 ft 427 kts 63°
2026-05-06 18:22 60.18873 8.76875 21602 ft 424 kts 63°
2026-05-06 18:22 60.20068 8.82251 21216 ft 421 kts 63°
2026-05-06 18:22 60.21256 8.87605 20824 ft 417 kts 63°
2026-05-06 18:22 60.22420 8.92867 20389 ft 417 kts 63°
2026-05-06 18:23 60.23595 8.98188 19986 ft 415 kts 64°
2026-05-06 18:23 60.24762 9.03488 19521 ft 414 kts 64°
2026-05-06 18:23 60.25929 9.08799 19115 ft 413 kts 64°
2026-05-06 18:23 60.27086 9.14084 18794 ft 409 kts 64°
2026-05-06 18:24 60.28223 9.19288 18630 ft 400 kts 64°
2026-05-06 18:24 60.29329 9.24361 18454 ft 391 kts 64°
2026-05-06 18:24 60.30409 9.29325 18336 ft 382 kts 64°
2026-05-06 18:24 60.31472 9.34216 18002 ft 379 kts 64°
2026-05-06 18:25 60.32464 9.39052 17690 ft 377 kts 71°
2026-05-06 18:25 60.33125 9.44139 17326 ft 373 kts 75°
2026-05-06 18:25 60.33781 9.49178 16998 ft 369 kts 74°
2026-05-06 18:25 60.34448 9.54134 16710 ft 364 kts 74°
2026-05-06 18:26 60.35118 9.59027 16416 ft 360 kts 74°
2026-05-06 18:26 60.35790 9.63894 16016 ft 358 kts 74°
2026-05-06 18:26 60.36455 9.68690 15767 ft 353 kts 74°
2026-05-06 18:26 60.37117 9.73426 15450 ft 349 kts 73°
2026-05-06 18:27 60.37777 9.78126 15151 ft 346 kts 74°
2026-05-06 18:27 60.38419 9.82800 14744 ft 343 kts 74°
2026-05-06 18:27 60.39044 9.87420 14489 ft 337 kts 75°
2026-05-06 18:27 60.39652 9.91945 14269 ft 328 kts 75°
2026-05-06 18:28 60.40246 9.96366 13934 ft 324 kts 75°
2026-05-06 18:28 60.40828 10.00722 13587 ft 318 kts 75°
2026-05-06 18:28 60.41402 10.05017 13116 ft 314 kts 75°
2026-05-06 18:28 60.41965 10.09258 12646 ft 310 kts 75°
2026-05-06 18:29 60.42522 10.13457 12172 ft 307 kts 75°
2026-05-06 18:29 60.43065 10.17560 11686 ft 306 kts 76°
2026-05-06 18:29 60.43615 10.21730 11114 ft 307 kts 76°
2026-05-06 18:29 60.44159 10.25863 10700 ft 302 kts 76°
2026-05-06 18:30 60.44696 10.29959 10261 ft 299 kts 76°
2026-05-06 18:30 60.45222 10.33978 10006 ft 289 kts 76°
2026-05-06 18:30 60.45721 10.37805 9983 ft 273 kts 76°
2026-05-06 18:30 60.46342 10.41348 9950 ft 264 kts 58°
2026-05-06 18:31 60.47635 10.43893 9903 ft 259 kts 26°
2026-05-06 18:31 60.49337 10.45005 9939 ft 258 kts
2026-05-06 18:31 60.51104 10.45694 9931 ft 260 kts
2026-05-06 18:31 60.52881 10.46363 9911 ft 259 kts
2026-05-06 18:32 60.54656 10.47013 9917 ft 259 kts
2026-05-06 18:32 60.56429 10.47652 9930 ft 259 kts
2026-05-06 18:32 60.58122 10.48901 9908 ft 260 kts 29°
2026-05-06 18:32 60.59689 10.50768 9928 ft 262 kts 28°
2026-05-06 18:33 60.61264 10.52642 9915 ft 263 kts 34°
2026-05-06 18:33 60.62459 10.55375 9887 ft 260 kts 65°
2026-05-06 18:33 60.62943 10.58899 9938 ft 260 kts 83°
2026-05-06 18:33 60.63155 10.62546 9821 ft 258 kts 84°
2026-05-06 18:34 60.63350 10.66195 9493 ft 259 kts 85°
2026-05-06 18:34 60.63542 10.69823 9178 ft 257 kts 85°
2026-05-06 18:34 60.63731 10.73438 8892 ft 255 kts 85°
2026-05-06 18:34 60.63914 10.77037 8580 ft 255 kts 85°
2026-05-06 18:35 60.64093 10.80618 8303 ft 253 kts 85°
2026-05-06 18:35 60.64267 10.84173 8030 ft 251 kts 85°
2026-05-06 18:35 60.64436 10.87672 7720 ft 251 kts 85°
2026-05-06 18:35 60.64601 10.91194 7427 ft 249 kts 85°
2026-05-06 18:36 60.64757 10.94700 7158 ft 248 kts 88°
2026-05-06 18:36 60.64588 10.98185 6839 ft 247 kts 103°
2026-05-06 18:36 60.64195 11.01589 6563 ft 246 kts 105°
2026-05-06 18:36 60.63780 11.04970 6282 ft 245 kts 105°
2026-05-06 18:37 60.63367 11.08317 6054 ft 243 kts 105°
2026-05-06 18:37 60.62954 11.11657 5971 ft 244 kts 105°
2026-05-06 18:37 60.62537 11.15015 5993 ft 244 kts 105°
2026-05-06 18:37 60.62124 11.18336 6014 ft 245 kts 105°
2026-05-06 18:38 60.61708 11.21694 5983 ft 244 kts 105°
2026-05-06 18:38 60.61291 11.25047 5991 ft 244 kts 105°
2026-05-06 18:38 60.60600 11.28155 5930 ft 239 kts 131°
2026-05-06 18:38 60.59292 11.30147 5595 ft 235 kts 163°
2026-05-06 18:39 60.57697 11.30599 5286 ft 232 kts 183°
2026-05-06 18:39 60.56090 11.30461 5048 ft 230 kts 185°
2026-05-06 18:39 60.54485 11.30278 4998 ft 232 kts 185°
2026-05-06 18:40 60.51252 11.29843 4998 ft 232 kts 191°
2026-05-06 18:40 60.49664 11.29237 4999 ft 231 kts 194°
2026-05-06 18:40 60.48126 11.28486 4976 ft 224 kts 196°
2026-05-06 18:40 60.46635 11.27672 4993 ft 221 kts 197°
2026-05-06 18:41 60.45152 11.26822 4997 ft 221 kts 198°
2026-05-06 18:41 60.43672 11.25963 4993 ft 221 kts 198°
2026-05-06 18:41 60.42232 11.25123 5029 ft 216 kts 198°
2026-05-06 18:41 60.40805 11.24288 4955 ft 213 kts 198°
2026-05-06 18:42 60.39382 11.23457 4677 ft 214 kts 198°
2026-05-06 18:42 60.37953 11.22621 4419 ft 211 kts 198°
2026-05-06 18:42 60.36565 11.21809 4136 ft 205 kts 198°
2026-05-06 18:42 60.35201 11.21010 3854 ft 203 kts 198°
2026-05-06 18:43 60.33851 11.20222 3593 ft 201 kts 198°
2026-05-06 18:43 60.32510 11.19442 3314 ft 200 kts 198°
2026-05-06 18:43 60.31167 11.18654 3029 ft 202 kts 198°
2026-05-06 18:43 60.29822 11.17873 2741 ft 201 kts 198°
2026-05-06 18:44 60.28490 11.17096 2475 ft 197 kts 198°
2026-05-06 18:44 60.27205 11.16354 2214 ft 186 kts 198°
2026-05-06 18:44 60.26019 11.15667 1974 ft 170 kts 198°
2026-05-06 18:44 60.24927 11.15033 1751 ft 156 kts 198°
2026-05-06 18:45 60.23901 11.14438 1517 ft 151 kts 198°
2026-05-06 18:45 60.22895 11.13855 1297 ft 151 kts 198°
2026-05-06 18:45 60.21884 11.13269 1092 ft 152 kts 198°
2026-05-06 18:45 60.20864 11.12677 888 ft 153 kts 198°
2026-05-06 18:46 60.19842 11.12086 709 ft 150 kts 197°
2026-05-06 18:46 60.19003 11.11602 686 ft 93 kts 196°
2026-05-06 18:46 60.18568 11.11344 680 ft 41 kts 204°
2026-05-06 18:46 60.18456 11.11181 683 ft 11 kts 229°
2026-05-06 18:47 60.18436 11.11059 684 ft 4 kts 276°
2026-05-06 18:47 60.18446 11.10981 679 ft 8 kts 286°
2026-05-06 18:47 60.18466 11.10841 681 ft 14 kts 286°
2026-05-06 18:47 60.18531 11.10766 684 ft 13 kts 14°
2026-05-06 18:48 60.18643 11.10833 685 ft 21 kts 15°
2026-05-06 18:48 60.18783 11.10912 685 ft 21 kts 14°
2026-05-06 18:48 60.18928 11.10997 685 ft 20 kts 16°
2026-05-06 18:48 60.19071 11.11079 682 ft 21 kts 16°
2026-05-06 18:49 60.19200 11.11154 684 ft 18 kts 16°
2026-05-06 18:49 60.19316 11.11221 687 ft 16 kts 17°
2026-05-06 18:49 60.19399 11.11259 686 ft 9 kts 346°
2026-05-06 18:49 60.19432 11.11145 684 ft 11 kts 287°
2026-05-06 18:50 60.19455 11.10984 684 ft 13 kts 286°
2026-05-06 18:50 60.19482 11.10797 683 ft 15 kts 286°
2026-05-06 18:50 60.19511 11.10593 682 ft 15 kts 286°
2026-05-06 18:50 60.19535 11.10419 686 ft 10 kts 283°
2026-05-06 18:51 60.19530 11.10319 683 ft 7 kts 258°
2026-05-06 18:51 60.19524 11.10222 687 ft 7 kts 265°
2026-05-06 18:51 60.19521 11.10162 682 ft 2 kts 265°
2026-05-06 18:51 60.19521 11.10153 683 ft 0 kts 265°